Cheektowaga, NY

12:11 AM EDT on July 28, 2016 (GMT -0400)
Buffalo Niagara International

Weather History for KBUF - March, 2014

Change the Weather History Date:

Monday, March 31, 2014

  Actual Average Record
Temperature  
Mean Temperature 38 °F 40 °F  
Max Temperature 49 °F 48 °F 78 °F (1998)
Min Temperature 26 °F 31 °F 6 °F (1923)
Degree Days  
Heating Degree Days 27 25  
Month to date heating degree days 1178 961  
Since 1 July heating degree days 6284 5705  
Cooling Degree Days 0 0  
Month to date cooling degree days 0 0  
Year to date cooling degree days 0 0  
Moisture  
Dew Point 27 °F    
Average Humidity 68    
Maximum Humidity 85    
Minimum Humidity 50    
Precipitation  
Precipitation 0.00 in 0.10 in 1.33 in (1886)
Month to date precipitation 2.55 2.87  
Year to date precipitation 9.33 8.54  
Snow  
Snow 0.00 in 0.20 in 7.90 in (1987)
Month to date snowfall 24.5 12.9  
Since 1 July snowfall 128.7 91.7  
Snow Depth 3.00 in    
Sea Level Pressure  
Sea Level Pressure 30.19 in    
Wind  
Wind Speed 5 mph (SW)    
Max Wind Speed 12 mph    
Max Gust Speed 13 mph    
Visibility 10 miles    
Events      
T = Trace of Precipitation, MM = Missing Value Source: NWS Daily Summary

Daily Weather History Graph

Daily Weather History Graph

Search for Another Location

Airport or City:

Trip Planner

Search our weather history database for the weather conditions in past years. The results will help you decide how hot, cold, wet, or windy it might be!

Date:

Astronomy

Mar. 31, 2014 Rise Set
Actual Time 6:58 AM EDT 7:40 PM EDT
Civil Twilight 6:30 AM EDT 8:08 PM EDT
Nautical Twilight 5:56 AM EDT 8:42 PM EDT
Astronomical Twilight 5:21 AM EDT 9:17 PM EDT
Moon 7:19 AM EDT (3/31) 8:59 PM EDT (3/31)
Length of Visible Light 13h 38m
Length of Day
12h 41m
New Moon, 1% of the Moon is Illuminated
Mar 31
New Moon
Apr 7
First Quarter
Apr 15
Full
Apr 22
Last Quarter
Apr 29
New

Hourly Weather History & Observations

Time (EDT) Temp. Windchill Dew Point Humidity Pressure Visibility Wind Dir Wind Speed Gust Speed Precip Events Conditions
12:54 AM 32.0 °F 28.7 °F 21.0 °F 64% 30.10 in 10.0 mi NW 3.5 mph - N/A   Clear
1:54 AM 28.9 °F 25.2 °F 23.0 °F 78% 30.10 in 10.0 mi SSW 3.5 mph - N/A   Clear
2:54 AM 28.9 °F 25.2 °F 23.0 °F 78% 30.12 in 10.0 mi SW 3.5 mph - N/A   Clear
3:54 AM 28.0 °F - 23.0 °F 81% 30.12 in 10.0 mi Calm Calm - N/A   Clear
4:54 AM 27.0 °F 23.0 °F 21.9 °F 81% 30.14 in 10.0 mi SSW 3.5 mph - N/A   Clear
5:54 AM 26.1 °F 20.5 °F 21.9 °F 84% 30.17 in 10.0 mi SW 4.6 mph - N/A   Clear
6:54 AM 26.1 °F 19.4 °F 23.0 °F 88% 30.18 in 10.0 mi SSW 5.8 mph - N/A   Partly Cloudy
7:54 AM 28.0 °F 20.8 °F 24.1 °F 85% 30.20 in 10.0 mi SW 6.9 mph - N/A   Partly Cloudy
8:54 AM 30.9 °F 24.3 °F 25.0 °F 79% 30.22 in 10.0 mi SW 6.9 mph - N/A   Partly Cloudy
9:54 AM 33.1 °F 26.9 °F 26.1 °F 75% 30.24 in 10.0 mi SSW 6.9 mph - N/A   Partly Cloudy
10:54 AM 35.1 °F 29.3 °F 26.1 °F 70% 30.25 in 10.0 mi South 6.9 mph - N/A   Partly Cloudy
11:54 AM 39.0 °F 34.8 °F 28.0 °F 65% 30.23 in 10.0 mi SW 5.8 mph - N/A   Partly Cloudy
12:54 PM 41.0 °F 38.0 °F 28.0 °F 60% 30.23 in 10.0 mi SSW 4.6 mph - N/A   Partly Cloudy
1:54 PM 43.0 °F 40.3 °F 28.9 °F 58% 30.22 in 10.0 mi SW 4.6 mph - N/A   Partly Cloudy
2:54 PM 46.0 °F 41.9 °F 30.9 °F 56% 30.22 in 10.0 mi SSW 8.1 mph - N/A   Partly Cloudy
3:54 PM 46.0 °F 44.8 °F 30.9 °F 56% 30.20 in 10.0 mi South 3.5 mph - N/A   Partly Cloudy
4:54 PM 48.0 °F - 32.0 °F 54% 30.21 in 10.0 mi West 8.1 mph - N/A   Scattered Clouds
5:54 PM 48.9 °F - 30.9 °F 50% 30.20 in 10.0 mi Calm Calm - N/A   Partly Cloudy
6:54 PM 48.0 °F - 30.9 °F 52% 30.20 in 10.0 mi West 5.8 mph - N/A   Partly Cloudy
7:54 PM 44.1 °F 41.5 °F 30.0 °F 58% 30.20 in 10.0 mi WNW 4.6 mph - N/A   Partly Cloudy
8:54 PM 43.0 °F - 30.0 °F 60% 30.19 in 10.0 mi Calm Calm - N/A   Partly Cloudy
9:54 PM 39.9 °F 35.8 °F 30.9 °F 70% 30.18 in 10.0 mi ESE 5.8 mph - N/A   Partly Cloudy
10:54 PM 41.0 °F 37.1 °F 28.0 °F 60% 30.19 in 10.0 mi ESE 5.8 mph - N/A   Partly Cloudy
11:54 PM 37.9 °F 32.1 °F 27.0 °F 65% 30.17 in 10.0 mi ESE 8.1 mph - N/A   Partly Cloudy